DW6610 Weather Reports


time (UTC)temp
C
wind
direction
speed
KPH
gust
KPH
rain 1hr
cm
rain 24hr
cm
rain mn
cm
humidity
%
barometer
mb
20260903131052 26 0 0.0 1.6 0.00 0.00 0.00 88 1017.9
20260903130554 26 0 0.0 1.6 0.00 0.00 0.00 89 1018.0
20260903130111 25 0 0.0 1.6 0.00 0.00 0.00 89 1018.0
20260903125553 25 82 0.0 1.6 0.00 0.00 0.00 92 1017.9
20260903125051 24 0 0.0 1.6 0.00 0.00 0.00 93 1017.8
20260903124607 23 0 0.0 1.6 0.00 0.00 0.00 93 1017.8
20260903124051 23 81 0.0 1.6 0.00 0.00 0.00 94 1017.9
20260903123551 23 81 0.0 1.6 0.00 0.00 0.00 95 1017.9
20260903123105 23 0 0.0 1.6 0.00 0.00 0.00 95 1017.9
20260903122553 23 0 0.0 0.0 0.00 0.00 0.00 96 1017.7
20260903122051 23 0 0.0 0.0 0.00 0.00 0.00 96 1017.6
20260903121601 23 0 0.0 0.0 0.00 0.00 0.00 96 1017.4
20260903121052 23 0 0.0 0.0 0.00 0.00 0.00 96 1017.3
20260903120554 22 0 0.0 0.0 0.00 0.00 0.00 96 1017.4
20260903115551 22 0 0.0 0.0 0.00 0.00 0.00 96 1017.4
20260903115052 22 0 0.0 0.0 0.00 0.00 0.00 96 1017.3
20260903114619 22 0 0.0 0.0 0.00 0.00 0.00 96 1017.3
20260903114055 22 0 0.0 0.0 0.00 0.00 0.00 96 1017.2
20260903113551 22 0 0.0 1.6 0.00 0.00 0.00 96 1017.1
20260903113106 22 0 0.0 1.6 0.00 0.00 0.00 95 1017.1
20260903112553 22 0 0.0 1.6 0.00 0.00 0.00 96 1017.1
20260903112052 22 0 0.0 1.6 0.00 0.00 0.00 95 1017.2
20260903111617 22 0 0.0 1.6 0.00 0.00 0.00 95 1017.0
20260903111051 22 0 0.0 1.6 0.00 0.00 0.00 95 1017.0
20260903110550 23 0 0.0 0.0 0.00 0.00 0.00 95 1016.9
20260903110110 23 0 0.0 0.0 0.00 0.00 0.00 95 1016.8
20260903105554 23 0 0.0 0.0 0.00 0.00 0.00 95 1016.9
20260903105055 23 0 0.0 0.0 0.00 0.00 0.00 94 1016.9
20260903104615 23 0 0.0 0.0 0.00 0.00 0.00 94 1016.8
20260903104051 23 0 0.0 0.0 0.00 0.00 0.00 94 1016.7
20260903103551 23 0 0.0 0.0 0.00 0.00 0.00 93 1016.8
20260903103117 23 0 0.0 0.0 0.00 0.00 0.00 93 1016.7
20260903102552 23 0 0.0 0.0 0.00 0.00 0.00 93 1016.8
20260903102053 23 0 0.0 0.0 0.00 0.00 0.00 93 1016.8
20260903101607 23 0 0.0 0.0 0.00 0.00 0.00 93 1016.8
20260903101052 23 0 0.0 0.0 0.00 0.00 0.00 92 1016.7
20260903100555 23 0 0.0 0.0 0.00 0.00 0.00 92 1016.8
20260903100105 23 0 0.0 0.0 0.00 0.00 0.00 92 1016.7
20260903095551 23 0 0.0 0.0 0.00 0.00 0.00 93 1016.7
20260903095051 23 0 0.0 0.0 0.00 0.00 0.00 92 1016.7
20260903094604 23 0 0.0 0.0 0.00 0.00 0.00 92 1016.6
20260903094052 23 0 0.0 0.0 0.00 0.00 0.00 92 1016.6
20260903093552 23 0 0.0 0.0 0.00 0.00 0.00 92 1016.7
20260903093128 23 0 0.0 0.0 0.00 0.00 0.00 91 1016.6
20260903092551 23 0 0.0 0.0 0.00 0.00 0.00 91 1016.6
20260903092052 23 0 0.0 0.0 0.00 0.00 0.00 91 1016.6
20260903091608 23 0 0.0 0.0 0.00 0.00 0.00 91 1016.7
20260903091052 23 0 0.0 0.0 0.00 0.00 0.00 91 1016.5
20260903090553 23 0 0.0 0.0 0.00 0.00 0.00 91 1016.6
20260903085552 23 0 0.0 0.0 0.00 0.00 0.00 91 1016.6
20260903085051 23 0 0.0 1.6 0.00 0.00 0.00 91 1016.5
20260903084600 23 0 0.0 1.6 0.00 0.00 0.00 91 1016.6
20260903084051 23 0 0.0 1.6 0.00 0.00 0.00 91 1016.6
20260903083553 23 0 0.0 0.0 0.00 0.00 0.00 91 1016.5
20260903083100 23 0 0.0 0.0 0.00 0.00 0.00 91 1016.5
20260903082552 23 0 0.0 0.0 0.00 0.00 0.00 91 1016.5
20260903082052 24 0 0.0 0.0 0.00 0.00 0.00 91 1016.4
20260903081603 24 0 0.0 0.0 0.00 0.00 0.00 91 1016.4
20260903081052 24 0 0.0 0.0 0.00 0.00 0.00 90 1016.4
20260903080553 23 0 0.0 0.0 0.00 0.00 0.00 90 1016.4
20260903080059 24 0 0.0 0.0 0.00 0.00 0.00 89 1016.4
20260903075552 24 0 0.0 0.0 0.00 0.00 0.00 89 1016.3
20260903075055 24 0 0.0 0.0 0.00 0.00 0.00 89 1016.4
20260903074600 24 0 0.0 0.0 0.00 0.00 0.00 90 1016.3
20260903074051 24 0 0.0 0.0 0.00 0.00 0.00 90 1016.4
20260903073554 24 0 0.0 0.0 0.00 0.00 0.00 89 1016.3
20260903073101 24 0 0.0 0.0 0.00 0.00 0.00 89 1016.3
20260903072551 24 0 0.0 0.0 0.00 0.00 0.00 88 1016.3
20260903072052 25 0 0.0 0.0 0.00 0.00 0.00 88 1016.3
20260903071629 25 0 0.0 1.6 0.00 0.00 0.00 88 1016.4
20260903071052 25 0 0.0 1.6 0.00 0.00 0.00 87 1016.4
20260903070552 25 0 0.0 1.6 0.00 0.00 0.00 87 1016.4
20260903070111 25 0 0.0 1.6 0.00 0.00 0.00 87 1016.4
20260903065552 25 0 0.0 1.6 0.00 0.00 0.00 86 1016.5
20260903065051 25 0 0.0 1.6 0.00 0.00 0.00 85 1016.5
20260903064606 25 0 0.0 1.6 0.00 0.00 0.00 84 1016.5
20260903064052 26 77 0.0 1.6 0.00 0.00 0.00 84 1016.5
20260903063552 26 0 0.0 1.6 0.00 0.00 0.00 83 1016.4
20260903063107 26 0 0.0 1.6 0.00 0.00 0.00 82 1016.5
20260903062554 26 0 0.0 4.8 0.00 0.00 0.00 82 1016.6
20260903062053 26 0 0.0 4.8 0.00 0.00 0.00 82 1016.6
20260903061611 26 60 1.6 4.8 0.00 0.00 0.00 83 1016.5
20260903061051 25 66 0.0 3.2 0.00 0.00 0.00 84 1016.4
20260903060551 25 0 0.0 3.2 0.00 0.00 0.00 87 1016.6
20260903060107 25 112 0.0 1.6 0.00 0.00 0.00 88 1016.6
20260903055553 25 112 0.0 1.6 0.00 0.00 0.00 89 1016.6
20260903055051 25 0 0.0 1.6 0.00 0.00 0.00 89 1016.6
20260903054600 25 0 0.0 1.6 0.00 0.00 0.00 88 1016.6
20260903054052 25 0 0.0 0.0 0.00 0.00 0.00 88 1016.5
20260903053551 25 0 0.0 0.0 0.00 0.00 0.00 89 1016.5
20260903053103 25 0 0.0 0.0 0.00 0.00 0.00 88 1016.6
20260903052552 25 0 0.0 1.6 0.00 0.00 0.00 88 1016.6
20260903052052 25 0 0.0 1.6 0.00 0.00 0.00 89 1016.5
20260903051610 25 0 0.0 1.6 0.00 0.00 0.00 89 1016.5
20260903051051 25 0 0.0 1.6 0.00 0.00 0.00 90 1016.5
20260903050551 25 0 0.0 1.6 0.00 0.00 0.00 90 1016.5
20260903050115 25 0 0.0 1.6 0.00 0.00 0.00 90 1016.5
20260903045551 26 0 0.0 1.6 0.00 0.00 0.00 90 1016.5
20260903045051 26 0 0.0 1.6 0.00 0.00 0.00 90 1016.5
20260903044606 26 0 0.0 1.6 0.00 0.00 0.00 89 1016.5
20260903044052 26 0 0.0 0.0 0.00 0.00 0.00 87 1016.5
20260903043552 26 0 0.0 0.0 0.00 0.00 0.00 86 1016.4
20260903043103 26 0 0.0 0.0 0.00 0.00 0.00 86 1016.4
20260903042551 26 0 0.0 1.6 0.00 0.00 0.00 86 1016.4
20260903042054 26 0 0.0 1.6 0.00 0.00 0.00 86 1016.4
20260903041612 26 0 0.0 1.6 0.00 0.00 0.00 86 1016.4
20260903041051 26 0 0.0 0.0 0.00 0.00 0.00 85 1016.4
20260903040554 26 0 0.0 1.6 0.00 0.00 0.00 85 1016.4
20260903040111 26 0 0.0 1.6 0.00 0.00 0.00 85 1016.5
20260903035551 26 0 0.0 1.6 0.00 0.00 0.00 85 1016.5
20260903035051 26 0 0.0 1.6 0.00 0.00 0.00 85 1016.4
20260903034609 26 0 0.0 1.6 0.00 0.00 0.00 84 1016.5
20260903034052 27 126 0.0 1.6 0.00 0.00 0.00 84 1016.4
20260903033551 26 97 0.0 1.6 0.00 0.00 0.00 83 1016.4
20260903033103 26 94 0.0 0.0 0.00 0.00 0.00 83 1016.5
20260903032551 26 0 0.0 0.0 0.00 0.00 0.00 85 1016.5
20260903032052 26 0 0.0 0.0 0.00 0.00 0.00 85 1016.5
20260903031557 26 0 0.0 0.0 0.00 0.00 0.00 85 1016.5
20260903031054 26 0 0.0 0.0 0.00 0.00 0.00 85 1016.5
20260903030554 26 0 0.0 0.0 0.00 0.00 0.00 86 1016.6
20260903030103 26 0 0.0 0.0 0.00 0.00 0.00 85 1016.6
20260903025550 27 0 0.0 1.6 0.00 0.00 0.00 85 1016.5
20260903025053 27 0 0.0 1.6 0.00 0.00 0.00 84 1016.5
20260903024604 27 0 0.0 0.0 0.00 0.00 0.00 84 1016.4
20260903024052 27 0 0.0 0.0 0.00 0.00 0.00 83 1016.5
20260903023551 27 0 0.0 0.0 0.00 0.00 0.00 83 1016.4
20260903023103 27 0 0.0 1.6 0.00 0.00 0.00 82 1016.4
20260903022554 27 0 0.0 1.6 0.00 0.00 0.00 82 1016.4
20260903022051 27 93 0.0 1.6 0.00 0.00 0.00 82 1016.3
20260903021605 28 0 0.0 1.6 0.00 0.00 0.00 81 1016.3
20260903021054 28 0 0.0 1.6 0.00 0.00 0.00 80 1016.2
20260903020554 28 0 0.0 1.6 0.00 0.00 0.00 79 1016.1
20260903020104 28 0 0.0 1.6 0.00 0.00 0.00 79 1016.1
20260903015552 28 0 0.0 0.0 0.00 0.00 0.00 77 1016.0
20260903015052 28 0 0.0 1.6 0.00 0.00 0.00 77 1015.9
20260903014625 28 0 0.0 1.6 0.00 0.00 0.00 77 1015.9
20260903014054 28 0 0.0 1.6 0.00 0.00 0.00 79 1015.9
20260903013552 28 0 0.0 1.6 0.00 0.00 0.00 79 1015.7
20260903013110 28 94 0.0 1.6 0.00 0.00 0.00 78 1015.7
20260903012551 28 94 0.0 1.6 0.00 0.00 0.00 78 1015.8
20260903012052 28 0 0.0 0.0 0.00 0.00 0.00 78 1015.8
20260903011603 29 0 0.0 0.0 0.00 0.00 0.00 77 1015.7
20260903011052 29 0 0.0 1.6 0.00 0.00 0.00 76 1015.6
20260903010551 30 0 0.0 1.6 0.00 0.00 0.00 76 1015.6
20260903005553 30 0 0.0 1.6 0.00 0.00 0.00 73 1015.5
20260903005052 30 0 0.0 1.6 0.00 0.00 0.00 72 1015.6
20260903004602 30 0 0.0 0.0 0.00 0.00 0.00 72 1015.5
20260903004051 30 0 0.0 0.0 0.00 0.00 0.00 70 1015.5
20260903003552 31 0 0.0 0.0 0.00 0.00 0.00 70 1015.6
20260903003120 31 0 0.0 1.6 0.00 0.00 0.00 70 1015.5
20260903002551 31 0 0.0 1.6 0.00 0.00 0.00 67 1015.5
20260903002050 31 0 0.0 0.0 0.00 0.00 0.00 68 1015.6
20260903001603 32 0 0.0 0.0 0.00 0.00 0.00 67 1015.5
20260903001052 32 0 0.0 0.0 0.00 0.00 0.00 66 1015.5
20260903000553 32 0 0.0 1.6 0.00 0.00 0.00 64 1015.6
20260903000109 32 0 0.0 1.6 0.00 0.00 0.00 63 1015.6
20260902235552 32 0 0.0 0.0 0.00 0.00 0.00 60 1015.6
20260902235055 33 0 0.0 0.0 0.00 0.00 0.00 58 1015.6
20260902234606 33 0 0.0 1.6 0.00 0.00 0.00 57 1015.6
20260902234053 33 0 0.0 1.6 0.00 0.00 0.00 55 1015.6
20260902233550 33 93 0.0 1.6 0.00 0.00 0.00 55 1015.6
20260902233100 34 0 0.0 1.6 0.00 0.00 0.00 55 1015.6
20260902232552 34 0 0.0 1.6 0.00 0.00 0.00 54 1015.6
20260902232051 35 0 0.0 1.6 0.00 0.00 0.00 54 1015.7
20260902231607 35 0 0.0 1.6 0.00 0.00 0.00 52 1015.7
20260902231052 35 0 0.0 1.6 0.00 0.00 0.00 51 1015.7
20260902230551 35 0 0.0 1.6 0.00 0.00 0.00 50 1015.8
20260902230119 35 0 0.0 1.6 0.00 0.00 0.00 49 1015.7
20260902225554 36 100 0.0 3.2 0.00 0.00 0.00 48 1015.6
20260902225053 36 101 0.0 3.2 0.00 0.00 0.00 47 1015.7
20260902224612 36 84 0.0 3.2 0.00 0.00 0.00 46 1015.7
20260902224051 37 0 0.0 3.2 0.00 0.00 0.00 45 1015.7
20260902223554 37 92 1.6 3.2 0.00 0.00 0.00 44 1015.7
20260902223114 37 70 1.6 3.2 0.00 0.00 0.00 45 1015.7
20260902222552 37 144 0.0 4.8 0.00 0.00 0.00 45 1015.7
20260902222053 37 266 1.6 4.8 0.00 0.00 0.00 45 1015.9
20260902221610 37 89 1.6 4.8 0.00 0.00 0.00 46 1015.9
20260902221055 37 61 0.0 4.8 0.00 0.00 0.00 46 1015.9
20260902220552 37 0 0.0 4.8 0.00 0.00 0.00 45 1015.9
20260902220111 37 295 1.6 6.4 0.00 0.00 0.00 44 1015.8
20260902215552 37 305 1.6 9.7 0.00 0.00 0.00 45 1015.8
20260902215051 37 185 3.2 9.7 0.00 0.00 0.00 45 1015.9
20260902214624 38 270 3.2 8.0 0.00 0.00 0.00 44 1015.8
20260902214052 38 108 3.2 9.7 0.00 0.00 0.00 44 1015.9
20260902213551 38 143 4.8 9.7 0.00 0.00 0.00 42 1016.0
20260902213101 39 85 1.6 9.7 0.00 0.00 0.00 43 1015.9
20260902212553 39 37 3.2 9.7 0.00 0.00 0.00 41 1016.0
20260902212052 38 132 1.6 8.0 0.00 0.00 0.00 41 1016.0
20260902211603 39 18 1.6 9.7 0.00 0.00 0.00 42 1016.0
20260902211051 38 39 3.2 9.7 0.00 0.00 0.00 42 1016.0
20260902210555 39 159 3.2 9.7 0.00 0.00 0.00 43 1016.0
20260902210103 39 115 1.6 11.3 0.00 0.00 0.00 43 1016.1
20260902205552 39 58 3.2 11.3 0.00 0.00 0.00 42 1016.0
20260902205051 39 50 1.6 9.7 0.00 0.00 0.00 41 1016.1
20260902204611 39 89 3.2 9.7 0.00 0.00 0.00 43 1016.1
20260902204053 39 163 1.6 6.4 0.00 0.00 0.00 44 1016.2
20260902203552 39 100 1.6 8.0 0.00 0.00 0.00 45 1016.3
20260902203102 39 49 1.6 9.7 0.00 0.00 0.00 44 1016.3
20260902202552 38 73 1.6 9.7 0.00 0.00 0.00 43 1016.3
20260902202052 38 95 3.2 8.0 0.00 0.00 0.00 46 1016.4
20260902201623 38 91 3.2 8.0 0.00 0.00 0.00 44 1016.5
20260902201051 38 71 1.6 8.0 0.00 0.00 0.00 43 1016.5
20260902200551 38 303 1.6 8.0 0.00 0.00 0.00 46 1016.6
20260902200108 38 86 3.2 9.7 0.00 0.00 0.00 44 1016.7
20260902195552 38 0 1.6 9.7 0.00 0.00 0.00 47 1016.7
20260902195051 38 108 1.6 9.7 0.00 0.00 0.00 46 1016.7
20260902194603 38 290 3.2 9.7 0.00 0.00 0.00 47 1016.9
20260902194051 38 27 1.6 9.7 0.00 0.00 0.00 48 1016.8
20260902193554 38 35 3.2 9.7 0.00 0.00 0.00 49 1017.0
20260902193105 37 269 1.6 4.8 0.00 0.00 0.00 48 1017.0
20260902192551 37 143 1.6 9.7 0.00 0.00 0.00 45 1017.1
20260902192051 38 94 3.2 9.7 0.00 0.00 0.00 45 1017.2
20260902191606 38 325 4.8 8.0 0.00 0.00 0.00 46 1017.3
20260902191051 38 84 3.2 11.3 0.00 0.00 0.00 48 1017.2
20260902190552 38 34 3.2 11.3 0.00 0.00 0.00 46 1017.4
20260902190104 38 87 3.2 8.0 0.00 0.00 0.00 49 1017.4
20260902185550 38 95 3.2 8.0 0.00 0.00 0.00 49 1017.4
20260902185052 37 114 3.2 11.3 0.00 0.00 0.00 46 1017.5
20260902184657 37 98 4.8 11.3 0.00 0.00 0.00 48 1017.5
20260902184051 37 67 1.6 8.0 0.00 0.00 0.00 50 1017.5
20260902183552 36 255 1.6 8.0 0.00 0.00 0.00 49 1017.6
20260902183105 37 26 3.2 11.3 0.00 0.00 0.00 45 1017.7
20260902182552 38 94 4.8 11.3 0.00 0.00 0.00 47 1017.9
20260902182051 38 71 3.2 11.3 0.00 0.00 0.00 50 1017.9
20260902181604 38 50 1.6 8.0 0.00 0.00 0.00 48 1017.9
20260902181051 37 86 3.2 11.3 0.00 0.00 0.00 47 1017.9
20260902180551 37 97 3.2 11.3 0.00 0.00 0.00 48 1018.0
20260902180118 37 87 3.2 6.4 0.00 0.00 0.00 50 1018.0
20260902175552 37 64 3.2 6.4 0.00 0.00 0.00 49 1018.1
20260902175052 37 153 1.6 9.7 0.00 0.00 0.00 50 1018.2
20260902174609 37 92 3.2 9.7 0.00 0.00 0.00 47 1018.3
20260902174054 37 37 3.2 9.7 0.00 0.00 0.00 49 1018.3
20260902173553 37 261 3.2 8.0 0.00 0.00 0.00 51 1018.4
20260902173104 37 115 0.0 8.0 0.00 0.00 0.00 51 1018.4
20260902172551 36 92 3.2 8.0 0.00 0.00 0.00 55 1018.5
20260902172052 36 283 1.6 8.0 0.00 0.00 0.00 52 1018.5
20260902171606 37 25 1.6 8.0 0.00 0.00 0.00 52 1018.6
20260902171051 37 79 3.2 8.0 0.00 0.00 0.00 50 1018.8
20260902170551 37 46 1.6 8.0 0.00 0.00 0.00 51 1018.9
20260902170105 37 24 1.6 9.7 0.00 0.00 0.00 53 1019.1
20260902165552 37 47 3.2 9.7 0.00 0.00 0.00 50 1019.1
20260902165052 37 331 4.8 9.7 0.00 0.00 0.00 50 1019.2
20260902164607 37 319 1.6 8.0 0.00 0.00 0.00 51 1019.3
20260902164052 37 105 1.6 4.8 0.00 0.00 0.00 58 1019.3
20260902163552 37 13 1.6 8.0 0.00 0.00 0.00 57 1019.4
20260902163101 37 100 1.6 8.0 0.00 0.00 0.00 55 1019.5
20260902162551 36 65 0.0 6.4 0.00 0.00 0.00 57 1019.5
20260902162054 36 93 0.0 8.0 0.00 0.00 0.00 61 1019.6
20260902161604 36 98 3.2 8.0 0.00 0.00 0.00 58 1019.6
20260902161052 36 94 0.0 4.8 0.00 0.00 0.00 61 1019.6
20260902160551 36 105 0.0 4.8 0.00 0.00 0.00 60 1019.5
20260902155552 35 134 1.6 6.4 0.00 0.00 0.00 58 1019.6
20260902155118 35 84 1.6 6.4 0.00 0.00 0.00 59 1019.6
20260902154602 35 42 1.6 6.4 0.00 0.00 0.00 59 1019.6
20260902154051 35 56 0.0 6.4 0.00 0.00 0.00 61 1019.6
20260902153551 35 76 1.6 6.4 0.00 0.00 0.00 60 1019.7
20260902153113 35 101 1.6 6.4 0.00 0.00 0.00 60 1019.7
20260902152551 35 80 1.6 6.4 0.00 0.00 0.00 62 1019.7
20260902152051 35 97 1.6 6.4 0.00 0.00 0.00 66 1019.6
20260902151603 35 169 1.6 6.4 0.00 0.00 0.00 64 1019.6
20260902151055 35 141 1.6 6.4 0.00 0.00 0.00 65 1019.7
20260902150551 35 99 1.6 4.8 0.00 0.00 0.00 63 1019.7
20260902150105 35 86 1.6 4.8 0.00 0.00 0.00 67 1019.7
20260902145552 35 89 1.6 4.8 0.00 0.00 0.00 65 1019.7
20260902145051 34 79 0.0 1.6 0.00 0.00 0.00 67 1019.7
20260902144604 34 115 0.0 1.6 0.00 0.00 0.00 66 1019.7
20260902144051 33 112 0.0 3.2 0.00 0.00 0.00 68 1019.7
20260902143551 33 113 0.0 3.2 0.00 0.00 0.00 70 1019.7
20260902143105 33 164 1.6 3.2 0.00 0.00 0.00 68 1019.7
20260902142552 33 0 0.0 3.2 0.00 0.00 0.00 70 1019.7
20260902142053 33 92 0.0 3.2 0.00 0.00 0.00 69 1019.7
20260902141604 32 70 0.0 1.6 0.00 0.00 0.00 70 1019.7
20260902141052 32 115 0.0 4.8 0.00 0.00 0.00 71 1019.7
20260902140552 32 107 0.0 4.8 0.00 0.00 0.00 72 1019.7
20260902140108 31 92 0.0 3.2 0.00 0.00 0.00 72 1019.7
20260902135551 31 73 0.0 3.2 0.00 0.00 0.00 74 1019.8
20260902135051 31 86 0.0 3.2 0.00 0.00 0.00 73 1019.8
20260902134604 31 0 0.0 3.2 0.00 0.00 0.00 74 1019.8
20260902134051 30 0 0.0 3.2 0.00 0.00 0.00 74 1019.7
20260902133552 30 0 0.0 3.2 0.00 0.00 0.00 77 1019.8
20260902133105 29 0 0.0 3.2 0.00 0.00 0.00 79 1019.7
20260902132552 28 0 0.0 3.2 0.00 0.00 0.00 79 1019.7
20260902132051 27 63 1.6 3.2 0.00 0.00 0.00 81 1019.7
20260902131617 27 32 0.0 3.2 0.00 0.00 0.00 83 1019.7